Location: *
(43.4667°N, 11.6833°E)
Time: 15:29:30
(UTC+00:00)

Cosmos 2034 Rocket - Pass Details

Date: 19 July 2019
Orbit: 959 x 1000 km, 82.9° (Epoch: 20 August)

Event Time Altitude Azimuth Distance (km) Brightness Sun altitude
Exits shadow 20:04:59 - 180° (S) 3,374 6.4 -11.8°
Reaches altitude 10° 20:06:44 10° 179° (S) 2,710 5.9 -12.0°
Maximum altitude 20:12:56 75° 95° (E) 1,015 4.0 -12.8°
Drops below altitude 10° 20:19:14 10° 11° (N) 2,757 6.9 -13.6°
Sets 20:21:47 0° 10° (N) 3,715 7.6 -13.9°
